Location: Rounton
(54.4000°N, 1.3500°W)
Time: 23:13:29
(UTC+00:00)

Vanguard 3 - Pass Details

Date: 02 December 2021
Orbit: 508 x 3260 km, 33.3° (Epoch: 17 January)

Event Time Altitude Azimuth Distance (km) Brightness Sun altitude
Rises 09:02:02 0° 264° (W) 6,789 11.5 5.1°
Reaches altitude 10° 09:08:43 10° 251° (WSW) 5,332 11.1 5.7°
Maximum altitude 09:17:41 19° 214° (SW) 3,825 10.9 6.5°
Drops below altitude 10° 09:24:23 10° 174° (S) 3,811 11.9 7.1°
Sets 09:28:04 0° 156° (SSE) 4,354 13.0 7.4°
